Regional Weather Roundup
Issued by NWS Kansas City/Pleasant Hill, MO

Home | Current Version | Previous Version | Graphics & Text | Print | Product List | Glossary Off
Versions: 1 2 3 4 5 6 7 8 9 10 11 12 13 14 15 16 17 18 19 20 21 22 23 24 25 26 27 28 29 30 31 32 33 34 35 36 37 38 39 40 41 42 43 44 45 46 47 48 49 50

000
ASUS43 KEAX 290910
RWREAX

WEATHER ROUNDUP FOR EASTERN KANSAS AND NORTHWEST MISSOURI
NATIONAL WEATHER SERVICE KANSAS CITY/PLEASANT HILL MO
400 AM CDT WED JUL 29 2015

KSZ040-057-103>105-MOZ028-029-037-043-291000-
...KANSAS CITY METROPOLITAN AREA...

CITY           SKY/WX    TMP DP  RH WIND       PRES   REMARKS
K.C. INTL      TSTM      71  69  93 E15       30.05F FOG
K.C. DOWNTOWN  TSTM      73  70  90 E9        30.05F
LEES SUMMIT    HVY RAIN  72  69  90 NE9       30.08R FOG
OLATHE - IXD   TSTM      73  69  87 NE17G26   30.08R
OLATHE - OJC   LGT RAIN  74  67  78 NE10G25   30.07R
LAWRENCE       TSTM      71  69  93 VRB7G17   30.09R FOG

$$

MOZ001>008-011>017-020>025-030>033-038>040-044>046-053-054-291000-
...NORTHERN AND CENTRAL MISSOURI...

CITY           SKY/WX    TMP DP  RH WIND       PRES   REMARKS
ST. JOSEPH     LGT RAIN  72  71  97 S5        30.04S
MOSBY          CLOUDY    70  70 100 E8        30.05F
WARRENSBURG    RAIN      72  68  88 NW10G20   30.10R
WHITEMAN AFB   PTCLDY    75  69  81 N18       30.06R
CLINTON          N/A     79  75  89 CALM      30.02R
SEDALIA        CLOUDY    76  68  76 N16G28    30.07R
WARSAW         NOT AVBL
CHILLICOTHE      N/A     72  71  97 CALM      30.07R
KIRKSVILLE     TSTM      71  68  90 S12G17    30.07R

$$

MOZ041-047>049-056>058-063>065-088>090-097-291000-
...EASTERN AND SOUTHERN MISSOURI...

CITY           SKY/WX    TMP DP  RH WIND       PRES   REMARKS
ST. LOUIS INTL PTCLDY    84  76  76 SW6       29.97R HX  93
SPIRIT OF STL  PTCLDY    79  78  97 SW3       29.96R
COLUMBIA       PTCLDY    78  75  90 NW14      30.02R
JEFFERSON CITY CLEAR     78  75  90 CALM      29.99R
ROLLA          CLEAR     76  74  93 SW8       30.01R
OSAGE BEACH    CLEAR     75  73  94 CALM      30.01R
SPRINGFIELD    CLEAR     76  72  87 SW5       30.02R
BRANSON        PTCLDY    77  72  83 CALM      30.04R
JOPLIN         CLEAR     76  73  91 S6        30.00S
WEST PLAINS    CLEAR     78  73  84 W3        30.03R

$$

IAZ060-094-KSZ022-034>040-054-083-096-NEZ052-066-093-291000-
...KANSAS...SOUTHEAST NEBRASKA AND IOWA...

CITY           SKY/WX    TMP DP  RH WIND       PRES   REMARKS
TOPEKA         TSTM      72  71  97 NE14G22   30.08R FOG
MANHATTAN      LGT RAIN  68  67  96 NE6       30.06R
EMPORIA        PTCLDY    75  69  81 N14       30.03R
CHANUTE        MOCLDY    76  73  91 CALM      30.00S
WICHITA        MOCLDY    77  69  76 CALM      30.00R
OMAHA          MOCLDY    65  62  90 N7        30.08R
LINCOLN        PTCLDY    61  60  97 N7        30.09F
FALLS CITY     CLOUDY    71  70  96 N5        30.05R
LAMONI         LGT RAIN  72  70  93 NW3       30.08R
DES MOINES     CLOUDY    73  70  90 CALM      30.03R

$$



USA.gov is the U.S. government's official web portal to all federal, state and local government web resources and services.